Location: Unspecified
(35.7250°N, 0.0000°E)
Time: 13:24:55
(UTC+00:00)

Explorer 7 - Pass Details

Date: 17 August 2020
Orbit: 485 x 679 km, 50.3° (Epoch: 21 September)

Event Time Altitude Azimuth Distance (km) Brightness Sun altitude
Rises 19:13:42 0° 299° (WNW) 2,707 12.7 -6.0°
Reaches altitude 10° 19:18:09 10° 344° (NNW) 1,756 10.0 -6.9°
Maximum altitude 19:18:41 10° 352° (N) 1,737 9.8 -7.0°
Drops below altitude 10° 19:19:12 10° 359° (N) 1,744 9.7 -7.1°
Sets 19:23:29 0° 45° (NE) 2,586 10.0 -7.9°
